GW7468 Weather Reports


time (UTC)temp
C
wind
direction
speed
KPH
gust
KPH
rain 1hr
cm
rain 24hr
cm
rain mn
cm
humidity
%
barometer
mb
20260906204346 26 109 3.2 4.8 0.00 0.00 0.00 72 1017.6
20260906203846 26 197 6.4 6.4 0.00 0.00 0.00 71 1017.7
20260906203341 25 124 1.6 1.6 0.00 0.00 0.00 73 1017.7
20260906202838 26 98 4.8 9.7 0.00 0.00 0.00 73 1017.8
20260906202338 25 127 3.2 4.8 0.00 0.00 0.00 74 1018.0
20260906201837 25 183 6.4 6.4 0.00 0.00 0.00 74 1018.1
20260906201332 25 195 4.8 6.4 0.00 0.00 0.00 75 1018.3
20260906200828 25 114 4.8 6.4 0.00 0.00 0.00 75 1018.2
20260906200324 25 133 8.0 9.7 0.00 0.00 0.00 76 1018.3
20260906195818 25 148 4.8 4.8 0.00 0.00 0.00 77 1018.2
20260906195315 25 156 8.0 11.3 0.00 0.00 0.00 77 1018.3
20260906194811 25 170 6.4 6.4 0.00 0.00 0.00 78 1018.2
20260906194307 24 182 6.4 6.4 0.00 0.00 0.00 81 1018.3
20260906193806 24 188 4.8 4.8 0.00 0.00 0.00 79 1018.3
20260906193301 24 157 4.8 4.8 0.00 0.00 0.00 78 1018.4
20260906192758 24 101 3.2 3.2 0.00 0.00 0.00 79 1018.4
20260906192258 23 92 1.6 1.6 0.00 0.00 0.00 80 1018.4
20260906191756 23 94 1.6 1.6 0.00 0.00 0.00 80 1018.5
20260906191251 23 118 1.6 1.6 0.00 0.00 0.00 81 1018.6
20260906190746 23 103 1.6 1.6 0.00 0.00 0.00 81 1018.7
20260906190246 23 32 4.8 4.8 0.00 0.00 0.00 83 1019.1
20260906185745 22 27 4.8 4.8 0.00 0.00 0.00 83 1018.9
20260906185244 22 94 3.2 3.2 0.00 0.00 0.00 85 1019.3
20260906184739 22 13 6.4 6.4 0.00 0.00 0.00 85 1019.3
20260906184234 21 32 4.8 4.8 0.00 0.00 0.00 87 1019.3
20260906183730 21 88 3.2 3.2 0.00 0.00 0.00 87 1019.2
20260906183226 21 63 3.2 3.2 0.00 0.00 0.00 87 1019.4
20260906182726 22 19 3.2 4.8 0.00 0.00 0.00 86 1019.3
20260906182222 22 113 1.6 1.6 0.00 0.00 0.00 86 1019.4
20260906181717 21 122 1.6 1.6 0.00 0.00 0.00 88 1019.3
20260906181214 21 109 0.0 0.0 0.00 0.00 0.00 89 1019.3
20260906180713 21 76 1.6 1.6 0.00 0.00 0.00 89 1019.5
20260906180208 21 95 1.6 3.2 0.00 0.00 0.00 89 1019.5
20260906175706 21 118 1.6 3.2 0.00 0.00 0.00 90 1019.6
20260906175202 21 112 1.6 1.6 0.00 0.00 0.00 89 1019.5
20260906174700 20 123 3.2 4.8 0.00 0.00 0.00 90 1019.9
20260906174154 20 113 0.0 1.6 0.00 0.00 0.00 90 1019.8
20260906173650 20 99 1.6 3.2 0.00 0.00 0.00 90 1019.9
20260906173145 20 97 3.2 3.2 0.00 0.00 0.00 90 1019.9
20260906172645 20 126 0.0 0.0 0.00 0.00 0.00 91 1019.9
20260906172141 20 113 3.2 3.2 0.00 0.00 0.00 91 1020.1
20260906171640 20 139 0.0 0.0 0.00 0.00 0.00 92 1020.0
20260906171136 20 156 4.8 4.8 0.00 0.00 0.00 93 1020.4
20260906170632 20 153 4.8 4.8 0.00 0.00 0.00 92 1020.2
20260906170131 20 185 4.8 4.8 0.00 0.00 0.00 93 1020.2
20260906165627 20 147 4.8 4.8 0.00 0.00 0.00 92 1020.0
20260906165123 20 128 4.8 4.8 0.00 0.00 0.00 92 1020.2
20260906164621 20 134 0.0 0.0 0.00 0.00 0.00 91 1020.0
20260906164117 20 148 0.0 1.6 0.00 0.00 0.00 93 1020.1
20260906163613 20 144 1.6 1.6 0.00 0.00 0.00 93 1020.2
20260906163108 19 174 6.4 6.4 0.00 0.00 0.00 94 1020.0
20260906162605 19 146 6.4 6.4 0.00 0.00 0.00 94 1020.2
20260906162100 19 183 3.2 4.8 0.00 0.00 0.00 94 1020.0
20260906161555 19 160 1.6 1.6 0.00 0.00 0.00 94 1020.1
20260906161054 19 162 4.8 4.8 0.00 0.00 0.00 95 1020.1
20260906160553 19 135 3.2 3.2 0.00 0.00 0.00 95 1020.1
20260906160052 19 127 1.6 3.2 0.00 0.00 0.00 95 1020.1
20260906155549 18 127 3.2 3.2 0.00 0.00 0.00 95 1020.0
20260906155046 18 141 3.2 4.8 0.00 0.00 0.00 96 1019.9
20260906154541 18 129 6.4 6.4 0.00 0.00 0.00 96 1019.9
20260906154039 18 166 3.2 4.8 0.00 0.00 0.00 96 1020.0
20260906153538 18 179 8.0 11.3 0.00 0.00 0.00 96 1020.0
20260906153034 18 127 1.6 3.2 0.00 0.00 0.00 96 1020.0
20260906152533 18 131 3.2 4.8 0.00 0.00 0.00 97 1020.0
20260906152032 18 142 6.4 6.4 0.00 0.00 0.00 97 1020.3
20260906151528 18 184 9.7 9.7 0.00 0.00 0.00 97 1020.2
20260906151024 18 123 4.8 6.4 0.00 0.00 0.00 97 1020.2
20260906150519 18 161 6.4 6.4 0.00 0.00 0.00 97 1020.2
20260906150014 18 171 9.7 11.3 0.00 0.00 0.00 98 1020.3
20260906145513 18 160 6.4 6.4 0.00 0.00 0.00 97 1020.4
20260906145008 18 179 8.0 9.7 0.00 0.00 0.00 97 1020.3
20260906144502 18 162 4.8 4.8 0.00 0.00 0.00 97 1020.2
20260906143958 18 162 1.6 1.6 0.00 0.00 0.00 97 1020.3
20260906143453 18 181 9.7 11.3 0.00 0.00 0.00 98 1020.1
20260906142949 18 169 6.4 9.7 0.00 0.00 0.00 98 1020.1
20260906142448 18 186 9.7 11.3 0.00 0.00 0.00 97 1020.3
20260906141944 18 176 8.0 11.3 0.00 0.00 0.00 97 1020.2
20260906141443 18 175 6.4 6.4 0.00 0.00 0.00 98 1020.3
20260906140938 18 164 6.4 6.4 0.00 0.00 0.00 97 1020.3
20260906140433 18 156 8.0 9.7 0.00 0.00 0.00 97 1020.3
20260906135931 18 158 4.8 4.8 0.00 0.00 0.00 97 1020.4
20260906135430 18 179 4.8 4.8 0.00 0.00 0.00 97 1020.4
20260906134926 18 187 9.7 9.7 0.00 0.00 0.00 97 1020.4
20260906134421 17 178 8.0 9.7 0.00 0.00 0.00 97 1020.4
20260906133915 18 184 14.5 14.5 0.00 0.00 0.00 97 1020.7
20260906133411 18 174 9.7 11.3 0.00 0.00 0.00 97 1020.4
20260906132907 18 172 8.0 9.7 0.00 0.00 0.00 97 1020.3
20260906132402 18 168 6.4 6.4 0.00 0.00 0.00 97 1020.6
20260906131857 18 191 9.7 11.3 0.00 0.00 0.00 97 1020.6
20260906131353 18 185 11.3 14.5 0.00 0.00 0.00 96 1020.6
20260906130849 18 182 11.3 12.9 0.00 0.00 0.00 96 1020.4
20260906130348 18 183 9.7 12.9 0.00 0.00 0.00 96 1020.5
20260906125847 18 185 12.9 12.9 0.00 0.00 0.00 96 1020.7
20260906125344 18 189 12.9 14.5 0.00 0.00 0.00 96 1020.4
20260906124839 18 149 6.4 6.4 0.00 0.00 0.00 97 1020.5
20260906124335 18 187 11.3 14.5 0.00 0.00 0.00 96 1020.4
20260906123834 18 175 11.3 11.3 0.00 0.00 0.00 96 1020.2
20260906123329 18 193 9.7 11.3 0.00 0.00 0.00 97 1020.1
20260906122829 18 161 6.4 11.3 0.00 0.00 0.00 97 1020.3
20260906122324 17 171 6.4 9.7 0.00 0.00 0.00 97 1020.2
20260906121821 17 177 8.0 11.3 0.00 0.00 0.00 98 1020.2
20260906121317 17 147 4.8 6.4 0.00 0.00 0.00 99 1020.3
20260906120813 16 122 0.0 0.0 0.00 0.00 0.00 99 1020.2
20260906120308 16 118 0.0 0.0 0.00 0.00 0.00 99 1020.0
20260906115804 16 119 0.0 0.0 0.00 0.00 0.00 99 1020.2
20260906115259 16 104 1.6 1.6 0.00 0.00 0.00 99 1019.9
20260906114759 16 123 0.0 0.0 0.00 0.00 0.00 99 1019.8
20260906114254 16 122 0.0 0.0 0.00 0.00 0.00 99 1019.7
20260906113749 16 107 0.0 1.6 0.00 0.00 0.00 99 1019.7
20260906113249 16 99 0.0 0.0 0.00 0.00 0.00 99 1019.7
20260906112748 16 111 0.0 0.0 0.00 0.00 0.00 99 1019.6
20260906112245 16 107 1.6 1.6 0.00 0.00 0.00 99 1019.6
20260906111745 16 101 1.6 1.6 0.00 0.00 0.00 99 1019.5
20260906111244 16 32 1.6 3.2 0.00 0.00 0.00 99 1019.6
20260906110739 15 96 1.6 1.6 0.00 0.00 0.00 99 1019.7
20260906110235 15 113 1.6 1.6 0.00 0.00 0.00 99 1019.5
20260906105734 15 64 1.6 1.6 0.00 0.00 0.00 99 1019.5
20260906105230 15 124 0.0 0.0 0.00 0.00 0.00 99 1019.4
20260906104725 15 93 1.6 1.6 0.00 0.00 0.00 99 1019.4
20260906104224 15 90 1.6 1.6 0.00 0.00 0.00 99 1019.4
20260906103721 15 94 1.6 1.6 0.00 0.00 0.00 99 1019.3
20260906103216 15 81 1.6 1.6 0.00 0.00 0.00 99 1019.4
20260906102712 15 88 1.6 1.6 0.00 0.00 0.00 99 1019.4
20260906102211 15 72 1.6 1.6 0.00 0.00 0.00 99 1019.6
20260906101706 15 76 1.6 1.6 0.00 0.00 0.00 98 1019.4
20260906101201 15 330 1.6 3.2 0.00 0.00 0.00 98 1019.5
20260906100656 15 81 3.2 3.2 0.00 0.00 0.00 98 1019.4
20260906100156 15 89 1.6 1.6 0.00 0.00 0.00 98 1019.3
20260906095651 15 60 3.2 3.2 0.00 0.00 0.00 98 1019.3
20260906095147 15 57 1.6 1.6 0.00 0.00 0.00 98 1019.3
20260906094645 15 103 0.0 0.0 0.00 0.00 0.00 98 1019.4
20260906094141 15 105 0.0 0.0 0.00 0.00 0.00 98 1019.3
20260906093638 15 103 0.0 0.0 0.00 0.00 0.00 98 1019.2
20260906093137 15 111 0.0 0.0 0.00 0.00 0.00 98 1019.3
20260906092633 15 93 0.0 0.0 0.00 0.00 0.00 98 1019.1
20260906092133 15 104 0.0 0.0 0.00 0.00 0.00 98 1019.2
20260906091629 15 99 0.0 0.0 0.00 0.00 0.00 98 1019.3
20260906091125 15 103 1.6 1.6 0.00 0.00 0.00 98 1019.4
20260906090620 15 101 1.6 1.6 0.00 0.00 0.00 98 1019.4
20260906090120 16 111 0.0 0.0 0.00 0.00 0.00 98 1019.4
20260906085619 16 103 0.0 0.0 0.00 0.00 0.00 98 1019.4
20260906085114 15 105 1.6 1.6 0.00 0.00 0.00 98 1019.2
20260906084609 16 110 0.0 1.6 0.00 0.00 0.00 98 1019.3
20260906084107 16 124 0.0 0.0 0.00 0.00 0.00 98 1019.1
20260906083603 16 119 0.0 0.0 0.00 0.00 0.00 98 1019.1
20260906083103 16 115 0.0 1.6 0.00 0.00 0.00 98 1019.1
20260906082558 16 89 1.6 1.6 0.00 0.00 0.00 98 1019.0
20260906082054 16 119 0.0 0.0 0.00 0.00 0.00 98 1019.1
20260906081550 16 102 1.6 1.6 0.00 0.00 0.00 98 1019.3
20260906081045 16 93 1.6 1.6 0.00 0.00 0.00 98 1019.2
20260906080542 16 135 0.0 0.0 0.00 0.00 0.00 98 1019.3
20260906080038 16 130 0.0 1.6 0.00 0.00 0.00 98 1019.2
20260906075537 16 81 1.6 1.6 0.00 0.00 0.00 97 1019.3
20260906075032 16 109 0.0 1.6 0.00 0.00 0.00 97 1019.2
20260906074527 16 91 1.6 1.6 0.00 0.00 0.00 97 1019.3
20260906074025 16 75 0.0 0.0 0.00 0.00 0.00 97 1019.2
20260906073520 16 94 0.0 0.0 0.00 0.00 0.00 97 1019.3
20260906073016 17 129 0.0 0.0 0.00 0.00 0.00 97 1019.4
20260906072511 17 143 0.0 0.0 0.00 0.00 0.00 97 1019.4
20260906072008 17 135 0.0 0.0 0.00 0.00 0.00 96 1019.5
20260906071503 17 135 0.0 0.0 0.00 0.00 0.00 96 1019.4
20260906070958 17 143 0.0 0.0 0.00 0.00 0.00 96 1019.3
20260906070454 17 139 0.0 0.0 0.00 0.00 0.00 96 1019.3
20260906065950 17 145 1.6 1.6 0.00 0.00 0.00 95 1019.3
20260906065449 17 166 1.6 3.2 0.00 0.00 0.00 96 1019.6
20260906064945 17 136 0.0 0.0 0.00 0.00 0.00 96 1019.5
20260906064442 17 152 1.6 3.2 0.00 0.00 0.00 97 1019.7
20260906063942 17 126 0.0 0.0 0.00 0.00 0.00 97 1019.7
20260906063437 17 114 0.0 0.0 0.00 0.00 0.00 97 1019.8
20260906062937 16 118 0.0 0.0 0.00 0.00 0.00 97 1019.8
20260906062433 17 93 1.6 1.6 0.00 0.00 0.00 97 1020.1
20260906061928 17 89 1.6 1.6 0.00 0.00 0.00 97 1019.8
20260906061424 17 120 0.0 0.0 0.00 0.00 0.00 96 1019.7
20260906060924 17 107 0.0 1.6 0.00 0.00 0.00 96 1020.0
20260906060421 17 99 1.6 1.6 0.00 0.00 0.00 96 1020.1
20260906055917 17 88 1.6 3.2 0.00 0.00 0.00 96 1020.0
20260906055413 17 171 1.6 3.2 0.00 0.00 0.00 97 1020.0
20260906054908 17 189 1.6 1.6 0.00 0.00 0.00 98 1019.9
20260906054402 16 121 0.0 1.6 0.00 0.00 0.00 97 1020.0
20260906053859 16 120 0.0 0.0 0.00 0.00 0.00 97 1020.0
20260906053354 16 139 0.0 0.0 0.00 0.00 0.00 97 1020.0
20260906052850 16 113 0.0 0.0 0.00 0.00 0.00 97 1020.2
20260906052346 17 107 0.0 1.6 0.00 0.00 0.00 96 1020.2
20260906051843 17 150 1.6 3.2 0.00 0.00 0.00 98 1020.3
20260906051342 16 188 0.0 1.6 0.00 0.00 0.00 98 1020.6
20260906050838 16 103 0.0 0.0 0.00 0.00 0.00 97 1020.3
20260906050333 16 91 0.0 0.0 0.00 0.00 0.00 97 1020.3
20260906045832 16 123 0.0 0.0 0.00 0.00 0.00 97 1020.2
20260906045326 16 104 0.0 1.6 0.00 0.00 0.00 97 1020.2
20260906044822 16 126 0.0 0.0 0.00 0.00 0.00 97 1020.3
20260906044317 16 114 0.0 1.6 0.00 0.00 0.00 97 1020.3
20260906043813 16 117 0.0 0.0 0.00 0.00 0.00 97 1020.2
20260906043309 16 104 1.6 1.6 0.00 0.00 0.00 97 1020.4
20260906042808 16 133 0.0 0.0 0.00 0.00 0.00 97 1020.1
20260906042308 16 120 0.0 0.0 0.00 0.00 0.00 97 1020.2
20260906041803 16 111 0.0 1.6 0.00 0.00 0.00 97 1020.2
20260906041258 16 12 3.2 3.2 0.00 0.00 0.00 96 1020.0
20260906040753 16 4 3.2 3.2 0.00 0.00 0.00 97 1020.1
20260906040249 16 85 1.6 1.6 0.00 0.00 0.00 96 1020.0
20260906035744 16 108 1.6 1.6 0.00 0.00 0.00 96 1019.9
20260906035240 16 32 1.6 3.2 0.00 0.00 0.00 96 1019.8
20260906034739 16 23 3.2 3.2 0.00 0.00 0.00 96 1019.9
20260906034234 16 8 3.2 3.2 0.00 0.00 0.00 96 1020.1
20260906033730 16 9 3.2 3.2 0.00 0.00 0.00 96 1019.9
20260906033230 16 27 1.6 3.2 0.00 0.00 0.00 96 1019.9
20260906032727 17 354 3.2 3.2 0.00 0.00 0.00 96 1019.9
20260906032226 16 2 3.2 3.2 0.00 0.00 0.00 96 1020.1
20260906031722 17 68 1.6 3.2 0.00 0.00 0.00 95 1020.1
20260906031217 17 90 1.6 3.2 0.00 0.00 0.00 95 1020.0
20260906030717 17 85 1.6 3.2 0.00 0.00 0.00 95 1020.2
20260906030212 17 91 1.6 3.2 0.00 0.00 0.00 95 1020.3
20260906025711 17 110 0.0 0.0 0.00 0.00 0.00 95 1019.8
20260906025206 17 115 0.0 0.0 0.00 0.00 0.00 95 1019.8
20260906024705 17 99 0.0 0.0 0.00 0.00 0.00 95 1019.9
20260906024204 17 115 0.0 0.0 0.00 0.00 0.00 94 1019.9
20260906023701 17 114 0.0 0.0 0.00 0.00 0.00 94 1019.8
20260906023201 17 116 0.0 0.0 0.00 0.00 0.00 94 1019.7
20260906022655 18 112 0.0 0.0 0.00 0.00 0.00 94 1019.6
20260906022151 18 120 0.0 0.0 0.00 0.00 0.00 93 1019.7
20260906021647 18 120 0.0 0.0 0.00 0.00 0.00 92 1019.7
20260906021146 18 123 0.0 1.6 0.00 0.00 0.00 91 1019.5
20260906020641 19 138 0.0 0.0 0.00 0.00 0.00 90 1019.4
20260906020136 19 145 0.0 0.0 0.00 0.00 0.00 89 1019.4
20260906015636 19 147 1.6 3.2 0.00 0.00 0.00 88 1019.1
20260906015134 19 140 0.0 0.0 0.00 0.00 0.00 88 1019.1
20260906014635 20 137 0.0 0.0 0.00 0.00 0.00 87 1019.0
20260906014131 20 128 1.6 1.6 0.00 0.00 0.00 86 1019.0
20260906013626 20 143 0.0 0.0 0.00 0.00 0.00 86 1018.9
20260906013122 19 154 1.6 1.6 0.00 0.00 0.00 86 1019.0
20260906012616 19 132 0.0 0.0 0.00 0.00 0.00 88 1019.0
20260906012116 20 131 0.0 0.0 0.00 0.00 0.00 87 1019.0
20260906011612 20 134 0.0 0.0 0.00 0.00 0.00 85 1019.0
20260906011107 20 140 0.0 0.0 0.00 0.00 0.00 86 1018.9
20260906010602 20 167 1.6 1.6 0.00 0.00 0.00 84 1018.6
20260906010058 20 171 3.2 3.2 0.00 0.00 0.00 83 1018.7
20260906005557 21 147 6.4 9.7 0.00 0.00 0.00 83 1018.7
20260906005057 21 186 9.7 11.3 0.00 0.00 0.00 84 1018.9
20260906004556 21 185 6.4 6.4 0.00 0.00 0.00 82 1018.5
20260906004051 21 165 6.4 9.7 0.00 0.00 0.00 81 1018.7
20260906003546 21 181 6.4 6.4 0.00 0.00 0.00 81 1018.5
20260906003043 21 152 4.8 4.8 0.00 0.00 0.00 80 1018.6
20260906002543 21 158 8.0 9.7 0.00 0.00 0.00 82 1018.6
20260906002037 21 158 8.0 11.3 0.00 0.00 0.00 82 1018.5
20260906001533 21 162 9.7 11.3 0.00 0.00 0.00 82 1018.3
20260906001027 21 135 6.4 9.7 0.00 0.00 0.00 79 1018.4
20260906000523 21 183 4.8 6.4 0.00 0.00 0.00 78 1018.3
20260906000018 21 168 6.4 6.4 0.00 0.00 0.00 81 1018.3
20260905235517 21 153 6.4 9.7 0.00 0.00 0.00 80 1018.1
20260905235013 21 169 4.8 4.8 0.00 0.00 0.00 78 1018.1
20260905234509 22 182 6.4 6.4 0.00 0.00 0.00 79 1018.1
20260905234009 22 177 3.2 4.8 0.00 0.00 0.00 78 1018.0
20260905233504 22 132 1.6 3.2 0.00 0.00 0.00 77 1017.8
20260905233003 22 155 8.0 11.3 0.00 0.00 0.00 77 1017.8
20260905232459 22 168 6.4 6.4 0.00 0.00 0.00 78 1017.8
20260905231954 22 145 8.0 9.7 0.00 0.00 0.00 77 1017.9
20260905231450 22 180 6.4 9.7 0.00 0.00 0.00 76 1017.9
20260905230946 22 144 4.8 4.8 0.00 0.00 0.00 77 1017.9
20260905230444 22 198 8.0 9.7 0.00 0.00 0.00 77 1018.0
20260905225943 22 131 8.0 9.7 0.00 0.00 0.00 77 1018.2
20260905225438 22 179 6.4 6.4 0.00 0.00 0.00 79 1018.3
20260905224933 22 171 8.0 9.7 0.00 0.00 0.00 77 1018.0
20260905224429 22 162 6.4 6.4 0.00 0.00 0.00 78 1018.0
20260905223928 22 132 8.0 11.3 0.00 0.00 0.00 77 1018.1
20260905223426 22 176 4.8 4.8 0.00 0.00 0.00 77 1018.0
20260905222926 22 109 9.7 12.9 0.00 0.00 0.00 76 1017.9
20260905222426 22 176 4.8 4.8 0.00 0.00 0.00 77 1018.2
20260905221922 22 172 8.0 9.7 0.00 0.00 0.00 76 1018.2
20260905221418 22 122 4.8 4.8 0.00 0.00 0.00 75 1018.1
20260905220914 22 187 6.4 9.7 0.00 0.00 0.00 76 1018.1
20260905220410 22 142 6.4 6.4 0.00 0.00 0.00 76 1018.1
20260905215909 22 126 4.8 4.8 0.00 0.00 0.00 76 1018.2
20260905215405 21 122 3.2 3.2 0.00 0.00 0.00 77 1018.3
20260905214901 22 193 8.0 9.7 0.00 0.00 0.00 77 1018.3
20260905214356 22 124 4.8 4.8 0.00 0.00 0.00 75 1018.3
20260905213851 22 184 4.8 4.8 0.00 0.00 0.00 76 1018.4
20260905213347 22 131 8.0 9.7 0.00 0.00 0.00 76 1018.7
20260905212847 21 163 6.4 9.7 0.00 0.00 0.00 77 1018.6
20260905212342 22 129 4.8 4.8 0.00 0.00 0.00 78 1018.7
20260905211841 21 112 8.0 11.3 0.00 0.00 0.00 79 1019.0
20260905211337 22 120 6.4 6.4 0.00 0.00 0.00 77 1019.1
20260905210834 21 200 8.0 9.7 0.00 0.00 0.00 77 1019.0
20260905210333 22 176 9.7 11.3 0.00 0.00 0.00 79 1019.1
20260905205832 21 189 14.5 14.5 0.00 0.00 0.00 79 1019.1
20260905205327 22 183 11.3 14.5 0.00 0.00 0.00 78 1019.1